Location: Vinland
(47.7731°N, 122.6974°W)
Time: 11:10:29
(UTC+00:00)

Altair - All Passes

Search period start: 29 March 2023 00:00
Search period end: 08 April 2023 00:00
Orbit: 1501 x 1682 km, 47.2° (Epoch: 28 March)

Date Brightness Start Highest point End Pass type
(mag) Time Alt. Az. Time Alt. Az. Time Alt. Az.
29 Mar - 10:17:24 10° SSE 10:21:05 13° SE 10:24:43 10° E visible
29 Mar - 12:15:06 10° SSW 12:23:50 43° SE 12:32:20 10° ENE visible
29 Mar - 14:18:28 10° WSW 14:27:51 80° SSE 14:37:03 10° E daylight
29 Mar - 16:23:14 10° W 16:32:33 85° S 16:41:45 10° ESE daylight
29 Mar - 18:27:59 10° WNW 18:36:46 52° SSW 18:45:33 10° SE daylight
29 Mar - 20:34:08 10° W 20:39:45 18° SW 20:45:25 10° SSW daylight
30 Mar - 09:53:38 10° SE 09:56:04 11° ESE 09:58:30 10° ESE visible
30 Mar - 11:50:07 10° SSW 11:58:45 40° SE 12:07:08 10° ENE visible
30 Mar - 13:53:16 10° WSW 14:02:41 78° SSE 14:11:52 10° E daylight
30 Mar - 15:58:02 10° W 16:07:22 86° S 16:16:34 10° E daylight
30 Mar - 18:02:47 10° WNW 18:11:39 55° SSW 18:20:30 10° SE daylight
30 Mar - 20:08:39 10° W 20:14:44 20° SW 20:20:51 10° S daylight
31 Mar - 11:25:09 10° SSW 11:33:39 38° SE 11:41:55 10° ENE visible
31 Mar - 13:28:05 10° WSW 13:37:31 75° SSE 13:46:42 10° E daylight
31 Mar - 15:32:49 10° W 15:42:11 87° S 15:51:23 10° E daylight
31 Mar - 17:37:35 10° WNW 17:46:32 58° SSW 17:55:26 10° SE daylight
31 Mar - 19:43:14 10° W 19:49:42 22° SW 19:56:13 10° S daylight
01 Apr - 11:00:12 10° SSW 11:08:34 35° SE 11:16:41 10° ENE visible
01 Apr - 13:02:55 10° WSW 13:12:21 73° SSE 13:21:31 10° ENE visible
01 Apr - 15:07:36 10° W 15:17:00 87° S 15:26:12 10° E daylight
01 Apr - 17:12:23 10° WNW 17:21:25 61° SSW 17:30:22 10° SE daylight
01 Apr - 19:17:52 10° W 19:24:40 24° SW 19:31:32 10° S daylight
02 Apr - 10:35:18 10° SSW 10:43:29 33° SE 10:51:27 10° ENE visible
02 Apr - 12:37:44 10° WSW 12:47:12 71° SSE 12:56:21 10° ENE visible
02 Apr - 14:42:23 10° W 14:51:48 88° S 15:01:02 10° E daylight
02 Apr - 16:47:11 10° WNW 16:56:17 63° SSW 17:05:17 10° SE daylight
02 Apr - 18:52:30 10° W 18:59:39 26° SW 19:06:47 10° S daylight
03 Apr - 10:10:24 10° SSW 10:18:24 31° SE 10:26:10 10° E visible
03 Apr - 12:12:35 10° WSW 12:22:02 68° SSE 12:31:11 10° ENE visible
03 Apr - 14:17:10 10° W 14:26:37 88° S 14:35:51 10° E daylight
03 Apr - 16:21:59 10° WNW 16:31:08 66° SSW 16:40:11 10° SE daylight
03 Apr - 18:27:11 10° W 18:34:36 28° SW 18:42:00 10° S daylight
04 Apr - 09:45:33 10° S 09:53:20 28° SE 10:00:54 10° E visible
04 Apr - 11:47:25 10° SW 11:56:52 65° SSE 12:06:01 10° ENE visible
04 Apr - 13:51:56 10° W 14:01:25 88° S 14:10:40 10° E daylight
04 Apr - 15:56:47 10° WNW 16:05:59 69° SSW 16:15:04 10° ESE daylight
04 Apr - 18:01:54 10° W 18:09:33 31° SW 18:17:11 10° SSE daylight
05 Apr - 09:20:44 10° S 09:28:16 26° SE 09:35:36 10° E visible
05 Apr - 11:22:17 10° SW 11:31:43 63° SSE 11:40:51 10° ENE visible
05 Apr - 13:26:42 10° W 13:36:14 88° S 13:45:29 10° E daylight
05 Apr - 15:31:35 10° WNW 15:40:51 72° SSW 15:49:56 10° ESE daylight
05 Apr - 17:36:37 10° WNW 17:44:30 33° SW 17:52:20 10° SSE daylight
06 Apr - 08:55:58 10° S 09:03:12 24° SE 09:10:15 10° E visible
06 Apr - 10:57:09 10° SW 11:06:34 60° SSE 11:15:40 10° ENE visible
06 Apr - 13:01:28 10° W 13:11:02 87° S 13:20:18 10° E visible
06 Apr - 15:06:22 10° WNW 15:15:42 74° SSW 15:24:49 10° ESE daylight
06 Apr - 17:11:21 10° WNW 17:19:26 36° SW 17:27:27 10° SSE daylight
07 Apr - 08:31:15 10° S 08:38:09 22° SE 08:44:53 10° E visible
07 Apr - 10:32:02 10° SW 10:41:26 57° SSE 10:50:30 10° ENE visible
07 Apr - 12:36:14 10° W 12:45:51 86° S 12:55:07 10° E visible
07 Apr - 14:41:10 10° W 14:50:32 76° SSW 14:59:41 10° ESE daylight
07 Apr - 16:46:05 10° WNW 16:54:21 38° SW 17:02:33 10° SSE daylight
